| time (UTC) | temp F | wind direction | speed MPH | gust MPH | rain 1hr in | rain 24hr in | rain mn in | humidity % | barometer mb |
| 20260506183152 | 51 | 323 | 0.0 | 0.0 | 0.00 | 0.00 | 0.99 | 94 | 1013.5 |
| 20260506182616 | 51 | 333 | 0.0 | 0.0 | 0.00 | 0.00 | 0.99 | 93 | 1012.9 |
| 20260506182056 | 51 | 18 | 0.0 | 1.0 | 0.00 | 0.00 | 0.99 | 93 | 1013.1 |
| 20260506181533 | 51 | 320 | 0.0 | 1.0 | 0.00 | 0.00 | 0.99 | 93 | 1013.0 |
| 20260506181016 | 51 | 2 | 1.0 | 1.0 | 0.00 | 0.00 | 0.99 | 93 | 1013.0 |
| 20260506180912 | 51 | 237 | 1.0 | 2.0 | 0.00 | 0.00 | 0.99 | 93 | 1013.0 |
| 20260506180352 | 51 | 334 | 1.0 | 1.0 | 0.00 | 0.00 | 0.99 | 93 | 1013.0 |
| 20260506180133 | 51 | 25 | 1.0 | 2.0 | 0.00 | 0.00 | 0.99 | 93 | 1012.9 |
| 20260506175729 | 51 | 317 | 0.0 | 0.0 | 0.00 | 0.00 | 0.99 | 93 | 1012.8 |
| 20260506175208 | 51 | 107 | 0.0 | 2.0 | 0.00 | 0.00 | 0.99 | 93 | 1012.8 |
| 20260506174649 | 51 | 281 | 0.0 | 1.0 | 0.00 | 0.00 | 0.99 | 93 | 1012.9 |
| 20260506174128 | 52 | 272 | 1.0 | 1.0 | 0.00 | 0.00 | 0.99 | 93 | 1012.7 |
| 20260506173608 | 52 | 338 | 1.0 | 1.0 | 0.00 | 0.00 | 0.99 | 93 | 1012.9 |
| 20260506173048 | 52 | 331 | 0.0 | 0.0 | 0.00 | 0.00 | 0.99 | 93 | 1012.8 |
| 20260506172933 | 52 | 336 | 1.0 | 1.0 | 0.00 | 0.00 | 0.99 | 93 | 1013.0 |
| 20260506172408 | 52 | 311 | 1.0 | 1.0 | 0.00 | 0.00 | 0.99 | 93 | 1013.0 |
| 20260506171848 | 52 | 336 | 0.0 | 0.0 | 0.00 | 0.00 | 0.99 | 92 | 1013.0 |
| 20260506171328 | 52 | 323 | 0.0 | 0.0 | 0.00 | 0.00 | 0.99 | 92 | 1012.9 |
| 20260506170808 | 52 | 73 | 4.0 | 7.0 | 0.00 | 0.00 | 0.99 | 91 | 1012.8 |
| 20260506170248 | 53 | 335 | 1.0 | 1.0 | 0.00 | 0.00 | 0.99 | 92 | 1012.9 |
| 20260506165712 | 53 | 312 | 2.0 | 2.0 | 0.00 | 0.00 | 0.99 | 92 | 1012.7 |